Location: Cypress Lake
(26.5381°N, 81.8993°W)
Time: 22:45:02
(UTC+00:00)

Daily predictions for brighter satellites

Satellite Brightness Start Highest point End
(mag) Time Altitude Azimuth Time Altitude Azimuth Time Altitude Azimuth
Delta 7925 Rocket 3.8 22:52:14 10° W 22:57:11 74° S 23:03:16 10° ESE
Cosmos 2082 3.7 22:53:18 10° NNW 22:58:54 69° ENE 23:04:29 10° SSE
Okean O Rocket 3.8 22:55:02 10° SSW 22:58:58 32° W 23:02:53 10° NW
Cosmos 1515 Rocket 3.9 22:55:13 10° SSE 22:59:24 44° E 23:03:34 10° NNE
Cosmos 2228 Rocket 4.1 22:56:29 10° SSE 23:00:13 27° E 23:04:00 10° NNE
PSLV R/B 3.4 23:01:25 10° NW 23:03:42 30° NNE 23:05:58 10° E
ATLAS 5 CENTAUR R/B 2.2 23:01:42 10° SW 23:04:28 36° SSE 23:11:41 10° E
Cosmos 1666 Rocket 3.5 23:02:02 10° N 23:06:23 82° E 23:10:40 10° S
Aurora 2 Rocket 2.6 23:06:24 10° WSW 23:09:30 47° SSE 23:13:19 10° E
Cosmos 1633 2.9 23:06:36 10° NNW 23:10:12 68° W 23:13:46 10° S
Cosmos 1606 3.2 23:07:15 10° SSE 23:10:45 38° E 23:14:15 10° NNE
COSMO-SKYMED 1 2.7 23:07:47 10° NNE 23:12:01 52° E 23:16:14 10° S
ASTRO E2 3.8 23:09:49 10° SW 23:13:23 31° SSE 23:16:42 11° E
CCE 1 Rocket 3.6 23:09:58 10° WNW 23:13:50 88° S 23:19:18 10° ESE
Cosmos 2034 Rocket 4.1 23:07:42 10° N 23:14:00 61° E 23:20:16 10° SSE
Centaur D-1AR AC-41 3.7 23:12:38 10° WSW 23:17:40 40° S 23:21:07 10° ESE
Geosat 4.3 23:14:25 10° NNE 23:19:25 72° WNW 23:24:24 10° SSW
CZ-4 R/B 2.5 23:18:31 10° SE 23:21:52 24° ENE 23:25:10 10° NNE
Cosmos 1371 Rocket 4.2 23:17:08 10° N 23:22:05 46° ENE 23:27:02 10° SE
COSMOS 2455 3.2 23:17:47 10° S 23:23:27 45° ESE 23:29:08 10° NE
YAOGAN 1 3.8 23:21:25 10° ESE 23:24:36 20° ENE 23:27:47 10° NNE
ATLAS 2AS CENTAUR R/B 3.8 23:20:53 10° SSE 23:27:12 29° ESE 23:32:21 15° ENE
GPS 2-04 Rocket1 4.3 23:27:47 10° NW 23:30:13 17° N 23:31:39 14° NNE
CORIOLIS 4.5 23:25:30 10° S 23:30:52 73° WSW 23:36:18 10° NNW
CSL-04 Rocket 4.4 23:27:53 10° SE 23:32:26 29° ENE 23:36:56 10° NNE
Cosmos 1933 3.5 23:28:29 10° S 23:32:32 76° W 23:36:36 10° N
Tsikada Rocket 4.2 23:26:53 10° S 23:33:14 80° W 23:39:39 10° N
SMAP 4.3 23:29:46 10° S 23:34:13 46° W 23:38:41 10° NNW
NOAA 12 4.1 23:30:26 10° SSE 23:35:45 90° WSW 23:41:07 10° NNW
NOSS 2-2 (E) 3.0 23:33:53 10° SSW 23:37:35 64° ESE 23:39:53 21° NE
Cosmos 1470 Rocket 3.5 23:33:29 10° N 23:37:59 80° E 23:42:24 10° S
Cosmos 1048 Rocket 4.3 23:34:56 10° S 23:39:53 44° E 23:44:00 15° NE
Delta 168 2.5 23:37:59 10° W 23:41:02 61° S 23:42:39 26° ESE
Meteor 1-26 Rocket 4.3 23:35:06 10° S 23:41:02 71° E 23:46:57 10° NNE
Cosmos 2360 Rocket 2.8 23:40:24 10° SSE 23:45:25 34° ESE 23:47:53 24° ENE
YAOGAN 6 2.4 23:42:32 10° SSE 23:45:57 61° ENE 23:49:23 10° N
CZ-4 R/B 4.3 23:45:55 10° SSE 23:49:59 64° ENE 23:54:05 10° N
Cosmos 1782 2.9 23:49:03 10° S 23:52:57 53° E 23:54:53 27° NNE
SL-16 R/B 2.5 23:47:36 10° SSW 23:53:14 70° WNW 23:58:53 10° NNE
SeaSat 1 2.8 23:50:11 10° SE 23:54:43 38° ENE 23:59:15 10° N
